| time (UTC) | temp F | wind direction | speed MPH | gust MPH | rain 1hr in | rain 24hr in | rain mn in | humidity % | barometer mb |
| 20260507113336 | 60 | 249 | 1.0 | 3.0 | 0.00 | 0.00 | 0.00 | 98 | 1016.0 |
| 20260507112824 | 61 | 249 | 1.0 | 3.0 | 0.00 | 0.00 | 0.00 | 98 | 1017.0 |
| 20260507112318 | 62 | 249 | 1.0 | 3.0 | 0.00 | 0.00 | 0.00 | 98 | 1017.0 |
| 20260507111809 | 63 | 249 | 1.0 | 3.0 | 0.00 | 0.00 | 0.00 | 98 | 1017.0 |
| 20260507111307 | 63 | 249 | 1.0 | 3.0 | 0.00 | 0.00 | 0.00 | 98 | 1017.0 |
| 20260507110800 | 64 | 249 | 1.0 | 3.0 | 0.00 | 0.00 | 0.00 | 98 | 1017.0 |
| 20260507110252 | 65 | 249 | 1.0 | 3.0 | 0.00 | 0.00 | 0.00 | 98 | 1017.0 |
| 20260507105745 | 66 | 249 | 1.0 | 3.0 | 0.00 | 0.00 | 0.00 | 98 | 1017.0 |
| 20260507105239 | 56 | 246 | 1.0 | 3.0 | 0.00 | 0.00 | 0.00 | 98 | 1017.0 |
| 20260507104732 | 56 | 246 | 1.0 | 3.0 | 0.00 | 0.00 | 0.00 | 98 | 1017.0 |
| 20260507104229 | 57 | 246 | 1.0 | 3.0 | 0.00 | 0.00 | 0.00 | 98 | 1017.0 |
| 20260507103723 | 58 | 246 | 1.0 | 3.0 | 0.00 | 0.00 | 0.00 | 98 | 1017.0 |
| 20260507103221 | 58 | 246 | 1.0 | 3.0 | 0.00 | 0.00 | 0.00 | 98 | 1017.0 |
| 20260507102712 | 59 | 246 | 1.0 | 3.0 | 0.00 | 0.00 | 0.00 | 98 | 1016.0 |
| 20260507102209 | 60 | 246 | 1.0 | 3.0 | 0.00 | 0.00 | 0.00 | 98 | 1016.0 |
| 20260507101705 | 60 | 246 | 1.0 | 3.0 | 0.00 | 0.00 | 0.00 | 98 | 1016.0 |
| 20260507101154 | 61 | 246 | 1.0 | 3.0 | 0.00 | 0.00 | 0.00 | 98 | 1016.0 |
| 20260507100652 | 62 | 246 | 1.0 | 3.0 | 0.00 | 0.00 | 0.00 | 98 | 1016.0 |
| 20260507100145 | 62 | 246 | 1.0 | 3.0 | 0.00 | 0.00 | 0.00 | 98 | 1016.0 |
| 20260507095639 | 63 | 246 | 1.0 | 3.0 | 0.00 | 0.00 | 0.00 | 98 | 1016.0 |
| 20260507095134 | 64 | 246 | 1.0 | 3.0 | 0.00 | 0.00 | 0.00 | 98 | 1016.0 |
| 20260507094125 | 65 | 246 | 1.0 | 3.0 | 0.00 | 0.00 | 0.00 | 98 | 1016.0 |
| 20260507093618 | 66 | 246 | 1.0 | 3.0 | 0.00 | 0.00 | 0.00 | 98 | 1016.0 |
| 20260507093111 | 57 | 224 | 1.0 | 1.0 | 0.00 | 0.00 | 0.00 | 97 | 1016.0 |
| 20260507092605 | 58 | 224 | 1.0 | 1.0 | 0.00 | 0.00 | 0.00 | 97 | 1016.0 |
| 20260507092058 | 58 | 224 | 1.0 | 1.0 | 0.00 | 0.00 | 0.00 | 97 | 1016.0 |
| 20260507091547 | 59 | 224 | 1.0 | 1.0 | 0.00 | 0.00 | 0.00 | 97 | 1016.0 |
| 20260507091040 | 59 | 224 | 1.0 | 1.0 | 0.00 | 0.00 | 0.00 | 97 | 1016.0 |
| 20260507090538 | 60 | 224 | 1.0 | 1.0 | 0.00 | 0.00 | 0.00 | 97 | 1016.0 |
| 20260507090037 | 60 | 224 | 1.0 | 1.0 | 0.00 | 0.00 | 0.00 | 97 | 1016.0 |
| 20260507085526 | 61 | 224 | 1.0 | 1.0 | 0.00 | 0.00 | 0.00 | 97 | 1016.0 |
| 20260507085019 | 61 | 224 | 1.0 | 1.0 | 0.00 | 0.00 | 0.00 | 97 | 1016.0 |
| 20260507084518 | 62 | 224 | 1.0 | 1.0 | 0.00 | 0.00 | 0.00 | 97 | 1016.0 |
| 20260507084011 | 62 | 224 | 1.0 | 1.0 | 0.00 | 0.00 | 0.00 | 97 | 1016.0 |
| 20260507083510 | 63 | 224 | 1.0 | 1.0 | 0.00 | 0.00 | 0.00 | 97 | 1016.0 |
| 20260507083003 | 64 | 224 | 1.0 | 1.0 | 0.00 | 0.00 | 0.00 | 97 | 1016.0 |
| 20260507082451 | 65 | 224 | 1.0 | 1.0 | 0.00 | 0.00 | 0.00 | 97 | 1016.0 |
| 20260507081950 | 66 | 224 | 1.0 | 1.0 | 0.00 | 0.00 | 0.00 | 97 | 1016.0 |
| 20260507081449 | 67 | 224 | 1.0 | 1.0 | 0.00 | 0.00 | 0.00 | 97 | 1016.0 |
| 20260507080942 | 68 | 224 | 1.0 | 2.0 | 0.00 | 0.00 | 0.00 | 97 | 1016.0 |
| 20260507080436 | 58 | 224 | 1.0 | 1.0 | 0.00 | 0.00 | 0.00 | 97 | 1016.0 |
| 20260507075929 | 59 | 224 | 1.0 | 1.0 | 0.00 | 0.00 | 0.00 | 97 | 1016.0 |
| 20260507075423 | 60 | 224 | 1.0 | 1.0 | 0.00 | 0.00 | 0.00 | 97 | 1016.0 |
| 20260507074917 | 61 | 224 | 1.0 | 2.0 | 0.00 | 0.00 | 0.00 | 97 | 1016.0 |
| 20260507074410 | 61 | 224 | 1.0 | 2.0 | 0.00 | 0.00 | 0.00 | 97 | 1016.0 |
| 20260507073904 | 70 | 224 | 1.0 | 2.0 | 0.00 | 0.00 | 0.00 | 96 | 1016.0 |
| 20260507073357 | 70 | 224 | 1.0 | 2.0 | 0.00 | 0.00 | 0.00 | 96 | 1016.0 |
| 20260507072851 | 70 | 210 | 1.0 | 2.0 | 0.00 | 0.00 | 0.00 | 96 | 1016.0 |
| 20260507072344 | 70 | 210 | 1.0 | 2.0 | 0.00 | 0.00 | 0.00 | 95 | 1016.0 |
| 20260507071838 | 70 | 210 | 1.0 | 2.0 | 0.00 | 0.00 | 0.00 | 93 | 1016.0 |
| 20260507071330 | 70 | 210 | 1.0 | 2.0 | 0.00 | 0.00 | 0.00 | 93 | 1016.0 |
| 20260507070824 | 70 | 210 | 1.0 | 2.0 | 0.00 | 0.00 | 0.00 | 93 | 1016.0 |
| 20260507070317 | 70 | 210 | 1.0 | 2.0 | 0.00 | 0.00 | 0.00 | 91 | 1016.0 |
| 20260507065811 | 70 | 210 | 1.0 | 2.0 | 0.00 | 0.00 | 0.00 | 91 | 1016.0 |
| 20260507065306 | 70 | 210 | 1.0 | 2.0 | 0.00 | 0.00 | 0.00 | 91 | 1016.0 |
| 20260507064758 | 70 | 210 | 1.0 | 2.0 | 0.00 | 0.00 | 0.00 | 91 | 1016.0 |
| 20260507064251 | 59 | 229 | 1.0 | 1.0 | 0.00 | 0.00 | 0.00 | 89 | 1016.0 |
| 20260507063742 | 60 | 229 | 1.0 | 1.0 | 0.00 | 0.00 | 0.00 | 89 | 1016.0 |
| 20260507063239 | 61 | 229 | 1.0 | 1.0 | 0.00 | 0.00 | 0.00 | 89 | 1017.0 |
| 20260507062733 | 61 | 229 | 1.0 | 1.0 | 0.00 | 0.00 | 0.00 | 89 | 1017.0 |
| 20260507062226 | 62 | 229 | 1.0 | 1.0 | 0.00 | 0.00 | 0.00 | 89 | 1017.0 |
| 20260507061714 | 62 | 229 | 1.0 | 1.0 | 0.00 | 0.00 | 0.00 | 89 | 1017.0 |
| 20260507061213 | 63 | 229 | 1.0 | 1.0 | 0.00 | 0.00 | 0.00 | 89 | 1017.0 |
| 20260507060706 | 64 | 229 | 1.0 | 1.0 | 0.00 | 0.00 | 0.00 | 89 | 1017.0 |
| 20260507060205 | 65 | 229 | 1.0 | 1.0 | 0.00 | 0.00 | 0.00 | 89 | 1017.0 |
| 20260507055658 | 66 | 229 | 1.0 | 1.0 | 0.00 | 0.00 | 0.00 | 89 | 1017.0 |
| 20260507055152 | 67 | 229 | 1.0 | 1.0 | 0.00 | 0.00 | 0.00 | 89 | 1017.0 |
| 20260507054137 | 68 | 229 | 1.0 | 1.0 | 0.00 | 0.00 | 0.00 | 89 | 1017.0 |
| 20260507053635 | 68 | 229 | 1.0 | 1.0 | 0.00 | 0.00 | 0.00 | 89 | 1017.0 |
| 20260507053124 | 69 | 229 | 1.0 | 1.0 | 0.00 | 0.00 | 0.00 | 89 | 1017.0 |
| 20260507051540 | 70 | 229 | 1.0 | 2.0 | 0.00 | 0.00 | 0.00 | 89 | 1017.0 |
| 20260507050516 | 60 | 229 | 1.0 | 1.0 | 0.00 | 0.00 | 0.00 | 81 | 1017.0 |
| 20260507050009 | 60 | 229 | 1.0 | 1.0 | 0.00 | 0.00 | 0.00 | 81 | 1017.0 |
| 20260507044814 | 61 | 229 | 1.0 | 1.0 | 0.00 | 0.00 | 0.00 | 81 | 1017.0 |
| 20260507044306 | 62 | 229 | 1.0 | 1.0 | 0.00 | 0.00 | 0.00 | 81 | 1017.0 |
| 20260507043803 | 63 | 229 | 1.0 | 1.0 | 0.00 | 0.00 | 0.00 | 81 | 1017.0 |
| 20260507043257 | 64 | 229 | 1.0 | 2.0 | 0.00 | 0.00 | 0.00 | 81 | 1017.0 |
| 20260507042750 | 65 | 12 | 0.0 | 2.0 | 0.00 | 0.00 | 0.00 | 81 | 1017.0 |
| 20260507042243 | 66 | 12 | 0.0 | 2.0 | 0.00 | 0.00 | 0.00 | 81 | 1017.0 |
| 20260507041211 | 67 | 12 | 0.0 | 2.0 | 0.00 | 0.00 | 0.00 | 81 | 1017.0 |
| 20260507040704 | 67 | 12 | 0.0 | 2.0 | 0.00 | 0.00 | 0.00 | 81 | 1017.0 |
| 20260507040158 | 68 | 12 | 0.0 | 2.0 | 0.00 | 0.00 | 0.00 | 81 | 1017.0 |
| 20260507035652 | 69 | 12 | 0.0 | 2.0 | 0.00 | 0.00 | 0.00 | 81 | 1017.0 |
| 20260507035150 | 70 | 12 | 0.0 | 2.0 | 0.00 | 0.00 | 0.00 | 81 | 1017.0 |
| 20260507034649 | 61 | 77 | 1.0 | 1.0 | 0.00 | 0.00 | 0.00 | 81 | 1017.0 |
| 20260507034142 | 62 | 77 | 1.0 | 1.0 | 0.00 | 0.00 | 0.00 | 81 | 1017.0 |
| 20260507033639 | 63 | 77 | 1.0 | 1.0 | 0.00 | 0.00 | 0.00 | 81 | 1017.0 |
| 20260507033133 | 64 | 77 | 1.0 | 1.0 | 0.00 | 0.00 | 0.00 | 81 | 1017.0 |
| 20260507032626 | 65 | 77 | 1.0 | 1.0 | 0.00 | 0.00 | 0.00 | 81 | 1017.0 |
| 20260507032125 | 66 | 77 | 1.0 | 1.0 | 0.00 | 0.00 | 0.00 | 81 | 1017.0 |
| 20260507031618 | 66 | 77 | 1.0 | 1.0 | 0.00 | 0.00 | 0.00 | 81 | 1017.0 |
| 20260507031112 | 67 | 77 | 1.0 | 1.0 | 0.00 | 0.00 | 0.00 | 81 | 1017.0 |
| 20260507030604 | 68 | 77 | 1.0 | 1.0 | 0.00 | 0.00 | 0.00 | 81 | 1017.0 |
| 20260507025056 | 69 | 77 | 1.0 | 1.0 | 0.00 | 0.00 | 0.00 | 81 | 1017.0 |
| 20260507024550 | 70 | 77 | 1.0 | 1.0 | 0.00 | 0.00 | 0.00 | 81 | 1017.0 |
| 20260507024045 | 71 | 77 | 1.0 | 1.0 | 0.00 | 0.00 | 0.00 | 81 | 1017.0 |
| 20260507023539 | 71 | 77 | 1.0 | 1.0 | 0.00 | 0.00 | 0.00 | 81 | 1017.0 |
| 20260507023032 | 72 | 77 | 1.0 | 2.0 | 0.00 | 0.00 | 0.00 | 81 | 1017.0 |